Regional Weather Roundup
Issued by NWS Upton, NY

Current Version | Previous Version | Graphics & Text | Print | Product List | Glossary Off
Versions: 1 2 3 4 5 6 7 8 9 10 11 12 13 14 15 16 17 18 19 20 21 22 23 24 25 26 27 28 29 30 31 32 33 34 35

000
ASUS41 KOKX 220605
RWROKX

REGIONAL WEATHER ROUNDUP
NATIONAL WEATHER SERVICE NEW YORK NY
200 AM EDT WED OCT 22 2014

NOTE: "FAIR" INDICATES FEW OR NO CLOUDS BELOW 12,000 FEET WITH NO
SIGNIFICANT WEATHER AND/OR OBSTRUCTIONS TO VISIBILITY.

NYZ071-072-176-178-NJZ106-104-220700-
NEW YORK CITY METRO AREA


CITY           SKY/WX    TMP DP  RH WIND       PRES   REMARKS
CENTRAL PARK   CLOUDY    57  52  83 E6        29.92F
LAGUARDIA APRT CLOUDY    59  54  83 NE13      29.89F
KENNEDY INTL   CLOUDY    58  53  84 NE8       29.89F
NEWARK/LIBERTY MOCLDY    55  53  93 N12       29.89F
BRNX BOT. GARD   N/A     55  50  82 NE1       29.90F
TETERBORO      MOCLDY    56  52  86 N6        29.89F
$$

NYZ177-179-078>081-220700-
LONG ISLAND NEW YORK

CITY           SKY/WX    TMP DP  RH WIND       PRES   REMARKS
FARMINGDALE    RAIN      58  55  90 NE9       29.89F FOG
ISLIP          CLOUDY    59  56  89 NE10      29.87F
SHIRLEY        MOCLDY    58  56  93 VRB3      29.90S
WESTHAMPTON    CLOUDY    59  56  89 NE9       29.91S
MONTAUK POINT    N/A     59  56  89 NE10G21   29.92S
$$

NYZ052-065-067-220700-
HUDSON VALLEY

CITY           SKY/WX    TMP DP  RH WIND       PRES   REMARKS
WHITE PLAINS   MOCLDY    56  52  86 NE6       29.90S
NEWBURGH       CLOUDY    52  52 100 VRB3      29.94F
MONTGOMERY     LGT RAIN  52  50  93 NE13      29.93F
POUGHKEEPSIE   CLOUDY    53  50  89 N7        29.95R
ALBANY         CLOUDY    50  47  89 N12       30.01F
$$

NJZ001-105-106-008-010-013-015-019>022-104-220700-
NEW JERSEY

CITY           SKY/WX    TMP DP  RH WIND       PRES   REMARKS
NEWARK/LIBERTY MOCLDY    55  53  93 N12       29.89F
TETERBORO      MOCLDY    56  52  86 N6        29.89F
CALDWELL       CLOUDY    53  50  89 NE3       29.90F
MORRISTOWN     CLOUDY    54  50  87 CALM      29.90F
SOMERVILLE     MOCLDY    52  49  89 N6        29.88F
SUSSEX         CLOUDY    56  50  80 NE8       29.93S
ANDOVER          N/A     52  51  97 VRB7      29.91F
TRENTON        CLOUDY    54  49  83 N8        29.87F
MILLVILLE      LGT RAIN  57  54  89 NE7       29.83F
ATLANTIC CITY  CLOUDY    55  54  96 N9        29.82F
WRIGHTSTOWN    CLOUDY    54  53  97 N7        29.84F
TOMS RIVER     CLOUDY    55  54  94 N3        29.85S
BELMAR         CLOUDY    57  52  82 N7        29.85F
$$

PAZ047>061-062-071-220700-
EASTERN PENNSYLVANIA

CITY           SKY/WX    TMP DP  RH WIND       PRES   REMARKS
PHILADELPHIA   CLOUDY    58  51  78 NE15      29.86F
ALLENTOWN      MOCLDY    52  48  87 NE8       29.91R
SCRANTON       CLOUDY    52  49  89 N3        29.93S
$$

CTZ002-004>006-009-010-012-RIZ004-006-007-MAZ004-011-015-220700-
SOUTHERN NEW ENGLAND
 IN CT

CITY           SKY/WX    TMP DP  RH WIND       PRES   REMARKS
BRADLEY INTL   CLOUDY    54  49  83 N14       29.95F
HARTFORD       CLOUDY    54  50  86 N9        29.94F
DANBURY        LGT RAIN  55  50  83 NE7       29.94S
WTRBRY/OXFORD  CLOUDY    54  46  76 NE10      29.93S
BRIDGEPORT     CLOUDY    57  53  86 NE14      29.91S
MERIDEN        CLOUDY    54  50  86 N7        29.94S
NEW HAVEN      CLOUDY    56  52  86 N10       29.92S
CHESTER        CLOUDY    55  54  94 NE8       29.93S
GROTON         MOCLDY    56  53  90 NE18      29.91S
WILLIMANTIC    CLOUDY    57  51  80 NE10      29.95S

 IN RI

CITY           SKY/WX    TMP DP  RH WIND       PRES   REMARKS
PROVIDENCE     CLOUDY    55  53  93 N13       29.95F
BLOCK ISLAND   CLOUDY    57  54  88 NE13G20   29.91F
WESTERLY       CLOUDY    57  54  89 NE9       29.93F

 IN MA

CITY           SKY/WX    TMP DP  RH WIND       PRES   REMARKS
BOSTON         CLOUDY    52  50  93 N12       29.98F
WORCESTER      CLOUDY    48  47  96 NE10G18   29.98S FOG
WESTFIELD      CLOUDY    53  48  83 N10       29.97F
PROVINCETOWN   CLOUDY    57  54  88 N5        29.95F
NANTUCKET      CLEAR     53  53 100 N3        29.91F FOG
$$

ANZ330-335-338-340-345-350-353-355-220700-
COASTAL MARINE OBSERVATIONS


STATION/POSITION TIME  SKY/WX   TEMP    WIND        PRES    VSBY  WAVE
                                AIR SEA DIR/SP/G                  HT/PER
                 (UTC)          (F)     (DEG/KT/KT) (MB)    (MI)  (FT/S)
NY HARB ENTRANCE NOT AVBL
4S FIRE IS       0600               64                N/A           4/ 7
20S FIRE ISLAND  0600            63 64   70/ 16/ 19 1010.6          4/ 7
23SW MTP         0600                                 N/A           4/ 7
HUDSON CANYON    0600            65 66   60/ 12/ 14 1010.0          4/ 6
EXECUTION ROCKS  0600            59 63   60/ 17/ 21   N/A
WESTERN LI SOUND 0600            59      50/ 16/ 19   N/A           2/ 3
CENTRAL LI SOUND 0500            59 64   40/ 14/ 17   N/A           2/ 4
EASTERN LI SOUND 0500            59 64   40/ 16/ 19   N/A
ROBBINS REEF     0600            56     360/ 12/ 14 1010.6
$$


>>>>>>>>>>>>>>>>>>>>>>>>>>>> KEY <<<<<<<<<<<<<<<<<<<<<<<<<<<
>                                                          <
>     SKY/WX - SKY CONDITION/PRESENT WEATHER               <
>     TMP    - TEMPERATURE IN FAHRENHEIT                   <
>     DP     - DEWPOINT IN FAHRENHEIT                      <
>     RH     - RELATIVE HUMIDITY IN PERCENT                <
>     WIND   - DIRECTION AND SPEED IN MPH                  <
>     PRES   - MEAN SEA LEVEL PRESSURE IN INCHES OF HG     <
>     WCI    - WIND CHILL INDEX                            <
>     VSB    - VISIBILITY IN MILES                         <
>     HX     - HEAT INDEX                                  <
>     TC     - TEMPERATURE IN CELSIUS                      <
>     VRB    - VARIABLE WIND DIRECTION                     <
>                                                          <
>>>>>>>>>>>>>>>>>>>>>>>>>>>> KEY <<<<<<<<<<<<<<<<<<<<<<<<<<<





USA.gov is the U.S. government's official web portal to all federal, state and local government web resources and services.